Terug naar catalogus

STARLINK-4712

ActiefCommunicatieVLEO
NORAD 53798·PAYLOAD·🇺🇸 United States

Gelanceerd Sep 11, 2022 vanaf Cape Canaveral Space Force Station

Loading…

Volgende Passages (komende 24 uur)

TLE

VersSource: CelesTrak SupGP

Epoch: Sep 15, 2026, 01:59 UTC

1 53798C 22111AB  26258.08312500 -.00056884  00000+0 -18296-2 0  2589
2 53798  53.1574 131.0920 0001385  78.8926 218.5571 15.31723342    13

Volg STARLINK-4712 in realtime met AllMySat

Download on the App Store